DL8NDG-13 Weather Reports


Display with metric or nautical units.
time (UTC)temp
F
wind
direction
speed
MPH
gust
MPH
rain 1hr
in
rain 24hr
in
rain mn
in
humidity
%
barometer
mb
20260509130029 72 84 0.0 0.0 0.00 0.00 0.00 49 1016.1
20260509124535 70 82 0.0 0.0 0.00 0.00 0.00 50 1016.1
20260509123022 70 46 0.0 0.0 0.00 0.00 0.00 55 1016.4
20260509121530 69 42 0.0 0.0 0.00 0.00 0.00 54 1016.6
20260509120017 68 45 0.0 0.0 0.00 0.00 0.00 55 1016.7
20260509114533 67 65 0.0 0.0 0.00 0.00 0.00 56 1016.8
20260509113014 66 66 0.0 0.0 0.00 0.00 0.00 59 1017.0
20260509111510 67 78 0.0 0.0 0.00 0.00 0.00 57 1017.1
20260509110011 67 78 0.0 0.0 0.00 0.00 0.00 58 1017.4
20260509104507 66 88 0.0 0.0 0.00 0.00 0.00 56 1017.4
20260509103005 66 87 0.0 0.0 0.00 0.00 0.00 57 1017.6
20260509101501 65 67 0.0 0.0 0.00 0.00 0.00 65 1017.8
20260509100058 64 71 0.0 0.0 0.00 0.00 0.00 68 1017.9
20260509094554 62 74 0.0 0.0 0.00 0.00 0.00 71 1017.8
20260509093052 61 78 0.0 0.0 0.00 0.00 0.00 71 1017.9
20260509091555 60 83 0.0 0.0 0.00 0.00 0.00 74 1017.9
20260509090058 58 73 0.0 0.0 0.00 0.00 0.00 76 1018.1
20260509084544 57 74 0.0 0.0 0.00 0.00 0.00 78 1018.2
20260509083045 56 68 0.0 0.0 0.00 0.00 0.00 80 1018.3
20260509081530 55 66 0.0 0.0 0.00 0.00 0.00 81 1018.4
20260509080030 54 66 0.0 0.0 0.00 0.00 0.00 82 1018.4
20260509074532 53 69 0.0 0.0 0.00 0.00 0.00 84 1018.5
20260509073113 52 53 0.0 0.0 0.00 0.00 0.00 86 1018.5
20260509071556 51 53 0.0 0.0 0.00 0.00 0.00 86 1018.5
20260509070057 50 49 0.0 0.0 0.00 0.00 0.00 86 1018.6
20260509064548 49 51 0.0 0.0 0.00 0.00 0.00 85 1018.6
20260509063051 49 61 0.0 0.0 0.00 0.00 0.00 85 1018.6
20260509061545 48 61 0.0 0.0 0.00 0.00 0.00 83 1018.6
20260509060043 47 65 0.0 0.0 0.00 0.00 0.00 83 1018.5
20260509054542 47 44 0.0 0.0 0.00 0.00 0.00 82 1018.6
20260509053044 46 27 0.0 0.0 0.00 0.00 0.00 83 1018.4
20260509051537 46 27 0.0 0.0 0.00 0.00 0.00 83 1018.0
20260509050048 45 27 0.0 0.0 0.00 0.00 0.00 84 1017.9
20260509044534 44 27 0.0 0.0 0.00 0.00 0.00 85 1017.8
20260509043036 44 27 0.0 0.0 0.00 0.00 0.00 85 1017.7
20260509041527 44 26 0.0 0.0 0.00 0.00 0.00 85 1017.6
20260509040026 44 27 0.0 0.0 0.00 0.00 0.00 85 1017.7
20260509034525 44 24 0.0 0.0 0.00 0.00 0.00 86 1017.8
20260509033034 44 23 0.0 0.0 0.00 0.00 0.00 86 1017.6
20260509031527 44 23 0.0 0.0 0.00 0.00 0.00 86 1017.5
20260509030022 45 22 0.0 0.0 0.00 0.00 0.00 86 1017.5
20260509024519 45 22 0.0 0.0 0.00 0.00 0.00 86 1017.6
20260509023019 45 24 0.0 0.0 0.00 0.00 0.00 86 1017.6
20260509021518 45 24 0.0 0.0 0.00 0.00 0.00 86 1017.7
20260509020020 45 23 0.0 0.0 0.00 0.00 0.00 87 1017.6
20260509014517 45 23 0.0 0.0 0.00 0.00 0.00 87 1017.5
20260509013016 45 24 0.0 0.0 0.00 0.00 0.00 87 1017.5
20260509011515 45 22 0.0 0.0 0.00 0.00 0.00 87 1017.6
20260509010015 46 24 0.0 0.0 0.00 0.00 0.00 87 1017.6
20260509004511 46 23 0.0 0.0 0.00 0.00 0.00 87 1017.6
20260509003010 46 23 0.0 0.0 0.00 0.00 0.00 87 1017.7
20260509001509 46 23 0.0 0.0 0.00 0.00 0.00 87 1017.7
20260509000007 46 24 0.0 0.0 0.00 0.00 0.00 87 1017.6
20260508234507 47 22 0.0 0.0 0.00 0.00 0.00 87 1017.4
20260508233005 47 24 0.0 0.0 0.00 0.00 0.00 87 1017.6
20260508231502 47 24 0.0 0.0 0.00 0.00 0.00 86 1017.8
20260508230004 47 23 0.0 0.0 0.00 0.00 0.00 86 1017.7
20260508224613 47 24 0.0 0.0 0.00 0.00 0.00 86 1017.7
20260508223058 48 23 0.0 0.0 0.00 0.00 0.00 85 1017.7
20260508221658 48 24 0.0 0.0 0.00 0.00 0.00 85 1017.7
20260508220053 49 23 0.0 0.0 0.00 0.00 0.00 85 1017.7
20260508214552 49 22 0.0 0.0 0.00 0.00 0.00 84 1017.6
20260508213053 49 22 0.0 0.0 0.00 0.00 0.00 83 1017.7
20260508211553 50 23 0.0 0.0 0.00 0.00 0.00 83 1017.6
20260508210049 50 24 0.0 0.0 0.00 0.00 0.00 82 1017.4
20260508204549 51 23 0.0 0.0 0.00 0.00 0.00 82 1017.4
20260508203051 52 23 0.0 0.0 0.00 0.00 0.00 81 1017.5
20260508201547 52 22 0.0 0.0 0.00 0.00 0.00 80 1017.4
20260508200055 52 24 0.0 0.0 0.00 0.00 0.00 79 1017.4
20260508194546 53 23 0.0 0.0 0.00 0.00 0.00 78 1017.3
20260508193057 54 23 0.0 0.0 0.00 0.00 0.00 77 1017.1
20260508191545 54 23 0.0 0.0 0.00 0.00 0.00 75 1016.9
20260508190043 55 22 0.0 0.0 0.00 0.00 0.00 74 1016.6
20260508184544 56 24 0.0 0.0 0.00 0.00 0.00 71 1016.4
20260508183059 57 22 0.0 0.0 0.00 0.00 0.00 69 1016.3
20260508181551 58 24 0.0 0.0 0.00 0.00 0.00 66 1016.2
20260508180042 59 24 0.0 0.0 0.00 0.00 0.00 64 1015.9
20260508174541 60 23 0.0 0.0 0.00 0.00 0.00 62 1015.9
20260508173041 61 26 0.0 0.0 0.00 0.00 0.00 61 1015.8
20260508171547 62 23 0.0 0.0 0.00 0.00 0.00 58 1015.8
20260508170039 62 23 0.0 0.0 0.00 0.00 0.00 59 1015.8
20260508164539 63 29 0.0 0.0 0.00 0.00 0.00 57 1015.8
20260508163045 64 29 0.0 0.0 0.00 0.00 0.00 57 1015.9
20260508161540 62 5 0.0 0.0 0.00 0.00 0.00 57 1015.8
20260508160039 62 5 0.0 0.0 0.00 0.00 0.00 59 1015.7
20260508154536 62 360 0.0 0.0 0.00 0.00 0.00 55 1015.8
20260508153035 63 11 0.0 0.0 0.00 0.00 0.00 54 1015.8
20260508151634 63 13 0.0 0.0 0.00 0.00 0.00 53 1015.8
20260508150039 62 15 0.0 0.0 0.00 0.00 0.00 55 1015.9
20260508144541 62 15 0.0 0.0 0.00 0.00 0.00 56 1016.0
20260508143037 64 15 0.0 0.0 0.00 0.00 0.00 57 1016.1
20260508141531 64 5 0.0 0.0 0.00 0.00 0.00 52 1016.2
20260508140037 62 294 0.0 0.0 0.00 0.00 0.00 56 1016.4
20260508134530 63 5 0.0 0.0 0.00 0.00 0.00 56 1016.5
20260508133026 61 11 0.0 0.0 0.00 0.00 0.00 58 1016.7
20260508131525 62 360 0.0 0.0 0.00 0.00 0.00 56 1016.6